timestamp,surface_pressure_avg,surface_temp_avg,battery_voltage,lat,long
2024-05-04 00:09:00+00:00,216.4731,2.8,12.33,47.84626,-54.09684
2024-05-04 00:19:00+00:00,213.8797,2.8,12.25,47.84626,-54.09684
2024-05-04 00:29:00+00:00,209.1031,2.8,12.25,47.84626,-54.09684
2024-05-04 00:39:00+00:00,204.2165,2.8,12.25,47.84626,-54.09684
2024-05-04 00:49:00+00:00,201.4231,2.8,12.25,47.84626,-54.09684
2024-05-04 00:59:00+00:00,198.4715,2.87,12.25,47.84626,-54.09684
2024-05-04 01:09:00+00:00,196.7231,2.9,12.25,47.84626,-54.09684
2024-05-04 01:19:00+00:00,195.4098,2.93,12.25,47.84626,-54.09684
2024-05-04 01:29:00+00:00,194.3365,3.0,12.25,47.84626,-54.09684
2024-05-04 01:39:00+00:00,193.6147,3.0,12.25,47.84626,-54.09684
2024-05-04 01:49:00+00:00,193.8065,3.09,12.25,47.84626,-54.09684
2024-05-04 01:59:00+00:00,191.3131,3.1,12.25,47.84626,-54.09684
2024-05-04 02:09:00+00:00,187.7598,3.1,12.25,47.84626,-54.09684
2024-05-04 02:19:00+00:00,190.0548,3.09,12.25,47.84626,-54.09684
2024-05-04 02:29:00+00:00,194.6881,3.08,12.25,47.84626,-54.09684
2024-05-04 02:39:00+00:00,194.7731,3.05,12.25,47.84626,-54.09684
2024-05-04 02:49:00+00:00,192.7848,3.07,12.25,47.84626,-54.09684
2024-05-04 02:59:00+00:00,195.1548,3.08,12.25,47.84626,-54.09684
2024-05-04 03:09:00+00:00,198.4014,3.06,12.25,47.84626,-54.09684
2024-05-04 03:19:00+00:00,200.5398,3.03,12.25,47.84626,-54.09684
2024-05-04 03:29:00+00:00,202.9098,3.0,12.25,47.84626,-54.09684
2024-05-04 03:39:00+00:00,206.1914,2.9,12.25,47.84626,-54.09684
2024-05-04 03:49:00+00:00,208.6831,2.9,12.25,47.84626,-54.09684
2024-05-04 03:59:00+00:00,209.8148,2.9,12.25,47.84626,-54.09684
2024-05-04 04:09:00+00:00,213.1165,2.9,12.25,47.84626,-54.09684
2024-05-04 04:19:00+00:00,219.0214,2.85,12.25,47.84626,-54.09684
2024-05-04 04:29:00+00:00,223.9448,2.85,12.25,47.84626,-54.09684
2024-05-04 04:39:00+00:00,229.5664,2.73,12.25,47.84626,-54.09684
2024-05-04 04:49:00+00:00,236.213,2.5,12.25,47.84626,-54.09684
2024-05-04 04:59:00+00:00,241.8881,2.25,12.25,47.84626,-54.09684
2024-05-04 05:09:00+00:00,247.1064,2.5,12.25,47.84626,-54.09684
2024-05-04 05:19:00+00:00,253.5981,2.1,12.25,47.84626,-54.09684
2024-05-04 05:29:00+00:00,261.3398,2.0,12.25,47.84626,-54.09684
2024-05-04 05:39:00+00:00,269.3481,2.13,12.25,47.84626,-54.09684
2024-05-04 05:49:00+00:00,276.8081,2.8,12.25,47.84626,-54.09684
2024-05-04 05:59:00+00:00,284.0431,2.1,12.25,47.84626,-54.09684
2024-05-04 06:09:00+00:00,288.4214,2.06,12.25,47.84626,-54.09684
2024-05-04 06:19:00+00:00,291.9613,2.21,12.17,47.84626,-54.09684
2024-05-04 06:29:00+00:00,296.0048,2.3,12.17,47.84626,-54.09684
2024-05-04 06:39:00+00:00,302.8531,2.2,12.17,47.84626,-54.09684
2024-05-04 06:49:00+00:00,308.1647,2.1,12.17,47.84626,-54.09684
2024-05-04 06:59:00+00:00,313.3497,1.96,12.17,47.84626,-54.09684
2024-05-04 07:09:00+00:00,317.223,1.9,12.17,47.84626,-54.09684
2024-05-04 07:19:00+00:00,320.0446,1.9,12.17,47.84626,-54.09684
2024-05-04 07:29:00+00:00,322.4346,1.9,12.17,47.84626,-54.09684
2024-05-04 07:39:00+00:00,326.2281,1.9,12.17,47.84626,-54.09684
2024-05-04 07:49:00+00:00,328.1613,1.9,12.17,47.84626,-54.09684
2024-05-04 07:59:00+00:00,328.3212,1.9,12.17,47.84626,-54.09684
2024-05-04 08:09:00+00:00,329.7947,1.9,12.17,47.84626,-54.09684
2024-05-04 08:19:00+00:00,330.0598,1.9,12.17,47.84626,-54.09684
2024-05-04 08:29:00+00:00,328.0414,1.9,12.17,47.84626,-54.09684
2024-05-04 08:39:00+00:00,327.4331,1.9,12.17,47.84626,-54.09684
2024-05-04 08:49:00+00:00,328.5314,1.9,12.17,47.84626,-54.09684
2024-05-04 08:59:00+00:00,327.5463,1.9,12.17,47.84626,-54.09684
2024-05-04 09:09:00+00:00,323.7697,1.98,12.17,47.84626,-54.09684
2024-05-04 09:19:00+00:00,320.1563,1.99,12.17,47.84626,-54.09684
2024-05-04 09:29:00+00:00,317.378,1.99,12.17,47.84626,-54.09684
2024-05-04 09:39:00+00:00,315.6846,2.0,12.17,47.84626,-54.09684
2024-05-04 09:49:00+00:00,311.4348,2.09,12.17,47.84626,-54.09684
2024-05-04 09:59:00+00:00,306.843,2.1,12.17,47.84626,-54.09684
2024-05-04 10:09:00+00:00,301.9447,2.1,12.17,47.84626,-54.09684
2024-05-04 10:19:00+00:00,296.1697,2.1,12.17,47.84626,-54.09684
2024-05-04 10:29:00+00:00,288.0814,2.1,12.17,47.84626,-54.09684
2024-05-04 10:39:00+00:00,279.1564,2.1,12.17,47.84626,-54.09684
2024-05-04 10:49:00+00:00,274.0563,2.08,12.17,47.84626,-54.09684
2024-05-04 10:59:00+00:00,268.968,2.2,12.17,47.84626,-54.09684
2024-05-04 11:09:00+00:00,261.2131,2.1,12.17,47.84626,-54.09684
2024-05-04 11:19:00+00:00,251.998,2.09,12.25,47.84626,-54.09684
2024-05-04 11:29:00+00:00,247.0264,2.08,12.25,47.84626,-54.09684
2024-05-04 11:39:00+00:00,242.8615,2.09,12.25,47.84626,-54.09684
2024-05-04 11:49:00+00:00,235.3481,2.1,12.25,47.84626,-54.09684
2024-05-04 11:59:00+00:00,228.5947,2.1,12.25,47.84626,-54.09684
2024-05-04 12:09:00+00:00,225.3581,2.1,12.25,47.84626,-54.09684
2024-05-04 12:19:00+00:00,222.6948,2.1,12.25,47.84626,-54.09684
2024-05-04 12:29:00+00:00,216.9931,2.19,12.25,47.84626,-54.09684
2024-05-04 12:39:00+00:00,211.6215,2.2,12.25,47.84626,-54.09684
2024-05-04 12:49:00+00:00,208.6531,2.2,12.25,47.84626,-54.09684
2024-05-04 12:59:00+00:00,204.7415,2.23,12.25,47.84626,-54.09684
2024-05-04 13:09:00+00:00,199.9031,2.23,12.25,47.84626,-54.09684
2024-05-04 13:19:00+00:00,196.3598,2.25,12.41,47.84626,-54.09684
2024-05-04 13:29:00+00:00,193.7065,2.32,12.41,47.84626,-54.09684
2024-05-04 13:39:00+00:00,189.8298,2.6,12.41,47.84626,-54.09684
2024-05-04 13:49:00+00:00,185.8615,2.4,12.41,47.84626,-54.09684
2024-05-04 13:59:00+00:00,182.1148,2.29,12.41,47.84626,-54.09684
2024-05-04 14:09:00+00:00,179.5115,2.2,12.41,47.84626,-54.09684
2024-05-04 14:19:00+00:00,179.3281,2.2,12.49,47.84626,-54.09684
2024-05-04 14:29:00+00:00,178.8498,2.2,12.49,47.84626,-54.09684
2024-05-04 14:39:00+00:00,177.6747,2.2,12.49,47.84626,-54.09684
2024-05-04 14:49:00+00:00,177.7331,2.2,12.49,47.84626,-54.09684
2024-05-04 14:59:00+00:00,180.7215,2.2,12.49,47.84626,-54.09684
2024-05-04 15:09:00+00:00,185.1465,2.2,12.49,47.84626,-54.09684
2024-05-04 15:19:00+00:00,187.3865,2.29,12.49,47.84626,-54.09684
2024-05-04 15:29:00+00:00,187.3381,2.4,12.49,47.84626,-54.09684
2024-05-04 15:39:00+00:00,188.6098,2.4,12.49,47.84626,-54.09684
2024-05-04 15:49:00+00:00,192.8315,2.4,12.49,47.84626,-54.09684
2024-05-04 15:59:00+00:00,195.1864,2.4,12.49,47.84626,-54.09684
2024-05-04 16:09:00+00:00,194.9798,2.4,12.49,47.84626,-54.09684
2024-05-04 16:19:00+00:00,198.8965,2.4,12.49,47.84626,-54.09684
2024-05-04 16:29:00+00:00,203.9831,2.4,12.49,47.84626,-54.09684
2024-05-04 16:39:00+00:00,206.2065,2.47,12.49,47.84626,-54.09684
2024-05-04 16:49:00+00:00,209.5014,2.4,12.49,47.84626,-54.09684
2024-05-04 16:59:00+00:00,213.7831,2.4,12.49,47.84626,-54.09684
2024-05-04 17:09:00+00:00,217.1347,2.4,12.49,47.84626,-54.09684
2024-05-04 17:19:00+00:00,221.9481,2.4,12.57,47.84626,-54.09684
2024-05-04 17:29:00+00:00,229.3881,2.4,12.57,47.84626,-54.09684
2024-05-04 17:39:00+00:00,235.1331,2.4,12.57,47.84626,-54.09684
2024-05-04 17:49:00+00:00,240.3548,2.4,12.57,47.84626,-54.09684
2024-05-04 17:59:00+00:00,247.1715,2.4,12.57,47.84626,-54.09684
2024-05-04 18:09:00+00:00,254.9815,2.49,12.57,47.84626,-54.09684
2024-05-04 18:19:00+00:00,262.0147,2.5,12.57,47.84626,-54.09684
2024-05-04 18:29:00+00:00,270.4731,2.5,12.57,47.84626,-54.09684
2024-05-04 18:39:00+00:00,280.3747,2.5,12.57,47.84626,-54.09684
2024-05-04 18:49:00+00:00,285.6147,2.46,12.57,47.84626,-54.09684
2024-05-04 18:59:00+00:00,288.5197,2.54,12.57,47.84626,-54.09684
2024-05-04 19:09:00+00:00,293.1413,2.36,12.57,47.84626,-54.09684
2024-05-04 19:19:00+00:00,299.6047,1.89,12.57,47.84626,-54.09684
2024-05-04 19:29:00+00:00,302.3748,1.82,12.57,47.84626,-54.09684
2024-05-04 19:39:00+00:00,305.1313,1.88,12.57,47.84626,-54.09684
2024-05-04 19:49:00+00:00,309.9414,1.86,12.57,47.84626,-54.09684
2024-05-04 19:59:00+00:00,313.533,1.9,12.57,47.84626,-54.09684
2024-05-04 20:09:00+00:00,314.1746,1.9,12.57,47.84626,-54.09684
2024-05-04 20:19:00+00:00,318.2196,1.93,12.49,47.84626,-54.09684
2024-05-04 20:29:00+00:00,324.2214,1.9,12.49,47.84626,-54.09684
2024-05-04 20:39:00+00:00,325.288,1.9,12.49,47.84626,-54.09684
2024-05-04 20:49:00+00:00,324.9081,1.9,12.49,47.84626,-54.09684
2024-05-04 20:59:00+00:00,325.1247,1.87,12.49,47.84626,-54.09684
2024-05-04 21:09:00+00:00,322.893,1.84,12.49,47.84626,-54.09684
2024-05-04 21:19:01+00:00,318.1046,1.84,12.41,47.84626,-54.09684
2024-05-04 21:29:01+00:00,318.1396,1.8,12.41,47.84626,-54.09684
2024-05-04 21:39:01+00:00,319.2112,1.81,12.41,47.84626,-54.09684
2024-05-04 21:49:01+00:00,317.4146,1.87,12.41,47.84626,-54.09684
2024-05-04 21:59:01+00:00,311.5096,1.98,12.41,47.84626,-54.09684
2024-05-04 22:09:01+00:00,307.868,2.1,12.41,47.84626,-54.09684
2024-05-04 22:19:00+00:00,307.1346,2.18,12.33,47.84626,-54.09684
2024-05-04 22:29:00+00:00,303.123,2.16,12.33,47.84626,-54.09684
2024-05-04 22:39:00+00:00,292.6414,2.2,12.33,47.84626,-54.09684
2024-05-04 22:49:00+00:00,285.5913,2.1,12.33,47.84626,-54.09684
2024-05-04 22:59:00+00:00,283.143,1.9,12.33,47.84626,-54.09684
2024-05-04 23:09:00+00:00,276.9681,1.9,12.33,47.84626,-54.09684
2024-05-04 23:19:01+00:00,266.1214,2.19,12.25,47.84626,-54.09684
2024-05-04 23:29:01+00:00,261.4581,2.0,12.25,47.84626,-54.09684
2024-05-04 23:39:01+00:00,257.3481,1.9,12.25,47.84626,-54.09684
2024-05-04 23:49:01+00:00,247.8564,1.88,12.25,47.84626,-54.09684
2024-05-04 23:59:01+00:00,238.7831,1.89,12.25,47.84626,-54.09684
